Flag for Germany Weather past 2 weeks in Willich, North Rhine-Westphalia, Germany

Now
55 °F

Partly sunny.


Feels Like: 52 °F
Forecast: 43 / 50 °F
Wind: 13 mph from Southwest

Location: Monchengladbach Airport

Current Time: Oct 21, 2014 at 11:00:28 AM

Latest Report: Oct 21, 2014 at 10:20 AM


Visibility: N/A

Pressure: 29.74 "Hg

Humidity: 82%

Dew point: 50 °F

Location of WillichLocation

Historic Weather in Willich — Graph

°F

Willich temperature yesterday

Maximum temperature yesterday: 63 °F (at 1:50 PM)
Minimum temperature yesterday: 57 °F (at 7:50 AM)
Average temperature yesterday: 60 °F

Past Weeks' High & Low Weather Summary

 TemperatureHumidityPressure
High75 °F (Oct 19, 1:20 PM)100% (Oct 7, 7:50 AM)30.09 "Hg (Oct 7, 7:50 AM)
Low45 °F (Oct 11, 7:50 AM)56% (Oct 10, 2:20 PM)29.50 "Hg (Oct 7, 9:50 AM)
Average61 °F80%29.82 "Hg
* Reported Oct 6 9:20 AM — Oct 21 9:50 AM, Willich, Weather by CustomWeather, © 2014

Note: Actual official high and low records may vary slightly from our data, if they occured in-between our weather recording intervals... More about our weather records

Advertising

Willich weather history for previous 24 hours

 ConditionsComfort  
Time TempWeatherWind HumidityBarometerVisibility
9:50 AM
Oct 21
55 °FPartly sunny.10 mph82%29.74 "HgN/A
9:20 AM54 °FScattered clouds.9 mph82%29.77 "HgN/A
8:50 AM54 °FPassing clouds.10 mph82%29.77 "HgN/A
8:20 AM54 °FCool.13 mph88%29.80 "HgN/A
7:50 AM54 °FPartly sunny.9 mph88%29.77 "Hg5 mi
8:20 PM
Oct 20
57 °FPassing clouds.6 mph88%29.98 "HgN/A
7:50 PM57 °FRain showers. Passing clouds.6 mph88%29.98 "Hg5 mi
7:20 PM57 °FPassing clouds.6 mph82%29.98 "HgN/A
6:50 PM59 °FPassing clouds.6 mph77%29.98 "HgN/A
6:20 PM59 °FPassing clouds.6 mph77%29.98 "HgN/A
5:50 PM61 °FPassing clouds.7 mph72%29.98 "HgN/A
5:20 PM61 °FPassing clouds.9 mph72%29.98 "HgN/A
4:50 PM61 °FPassing clouds.7 mph72%30.01 "HgN/A
4:20 PM63 °FPassing clouds.6 mph68%30.01 "HgN/A
3:50 PM63 °FPassing clouds.8 mph68%30.01 "HgN/A
3:20 PM63 °FPassing clouds.8 mph68%30.01 "HgN/A
2:50 PM61 °FPassing clouds.9 mph72%30.04 "HgN/A
2:20 PM61 °FPassing clouds.9 mph72%30.04 "HgN/A
1:50 PM63 °FPassing clouds.9 mph73%30.04 "HgN/A
1:20 PM61 °FPassing clouds.10 mph72%30.04 "HgN/A
12:50 PM61 °FPartly cloudy.10 mph72%30.04 "HgN/A
12:20 PM61 °FPassing clouds.9 mph77%30.04 "HgN/A
11:50 AM59 °FPassing clouds.8 mph82%30.07 "HgN/A
11:20 AM59 °FPassing clouds.7 mph82%30.07 "HgN/A
Weather by CustomWeather, © 2014

See weather overviewHow to use our weather pages